Regional Weather Roundup
Issued by NWS

Home | Current Version | Previous Version | Graphics & Text | Print | Product List | Glossary On
Versions: 1 2 3 4 5 6 7 8 9 10 11 12 13 14 15 16 17 18 19 20 21 22 23 24 25 26 27 28 29 30 31 32 33 34 35 36 37 38 39 40 41 42 43 44 45 46 47 48 49 50
000
ASUS43 KBIS 210102
RWRND

NORTH DAKOTA REGIONAL WEATHER ROUNDUP
NATIONAL WEATHER SERVICE BISMARCK ND
700 PM CST MON NOV 20 2017

NOTE: "FAIR" INDICATES FEW OR NO CLOUDS BELOW 12,000 FEET WITH NO
SIGNIFICANT WEATHER AND/OR OBSTRUCTIONS TO VISIBILITY.


NDZ001>003-009>011-017-210200-
NORTHWEST NORTH DAKOTA

CITY           SKY/WX    TMP DP  RH WIND       PRES   REMARKS
WILLISTON      CLOUDY    28  13  53 NW20G28   29.77R WCI  15
MINOT          PTCLDY    25  17  72 W21G33    29.65R WCI  11
MINOT AFB      CLEAR     23  16  75 NW21G38   29.63R WCI   8
$$

NDZ018>021-031>035-040>046-210200-
SOUTHWEST NORTH DAKOTA

CITY           SKY/WX    TMP DP  RH WIND       PRES   REMARKS
BISMARCK       PTCLDY    38  27  64 NW12      29.67R
DICKINSON      CLOUDY    33  20  58 W10       29.68R
GARRISON         N/A     29  18  63 NW18      29.66R WCI  16
HETTINGER ARPT CLOUDY    37  23  56 NW17      29.72R
$$

NDZ004>008-012>016-024-026-027-054-210200-
NORTHEAST NORTH DAKOTA

CITY           SKY/WX    TMP DP  RH WIND       PRES   REMARKS
GRAND FORKS    PTCLDY    35  29  78 NW30G45   29.44R
GRND FRKS AFB  CLEAR     35  27  73 NW24G33   29.46R
DEVILS LAKE    CLEAR     26  21  81 W33       29.51R WCI   9
$$

NDZ022-023-025-028>030-036>039-047>053-210200-
SOUTHEAST NORTH DAKOTA

CITY           SKY/WX    TMP DP  RH WIND       PRES   REMARKS
FARGO          CLEAR     40  30  67 W22G35    29.49R
JAMESTOWN      CLEAR     35  23  61 NW28G39   29.55R
$$





USA.gov is the U.S. government's official web portal to all federal, state and local government web resources and services.